Retour au catalogue

STARLINK-36768

ActifCommunicationsSSO
NORAD 67803·PAYLOAD·🇺🇸 United States

Lancé Feb 15, 2026 depuis Vandenberg Space Force Base

Loading…

Prochains Passages (prochaines 24 heures)

TLE

FraisSource: CelesTrak SupGP

Époque: Sep 15, 2026, 04:18 UTC

1 67803C 26032G   26258.17965278 -.00056094  00000+0 -17414-2 0  2587
2 67803  97.2851  84.6065 0001543  90.4459   4.1968 15.33464939    17

Suivez STARLINK-36768 en temps réel avec AllMySat

Download on the App Store